Billings, MT

11:46 PM MST on February 07, 2016 (GMT -0700)
Billings Logan International

Weather History for KBIL - October, 2013

Change the Weather History Date:

Sunday, October 6, 2013

  Actual Average Record
Temperature  
Mean Temperature 53 °F 52 °F  
Max Temperature 64 °F 63 °F 86 °F (1980)
Min Temperature 41 °F 40 °F 20 °F (2005)
Degree Days  
Heating Degree Days 12 13  
Month to date heating degree days 114 75  
Since 1 July heating degree days 228 304  
Cooling Degree Days 0 0  
Month to date cooling degree days 0 0  
Year to date cooling degree days 840 633  
Growing Degree Days 2 (Base 50)    
Moisture  
Dew Point 33 °F    
Average Humidity 50    
Maximum Humidity 65    
Minimum Humidity 34    
Precipitation  
Precipitation 0.00 in 0.04 in 0.72 in (2007)
Month to date precipitation 1.42 0.28  
Year to date precipitation 13.23 11.63  
Snow  
Snow 0.00 in 0.10 in 3.50 in (1990)
Month to date snowfall 0.3 0.7  
Since 1 July snowfall 0.3 1.8  
Since 1 September snowfall 0.3 1.8  
Snow Depth 0.00 in    
Sea Level Pressure  
Sea Level Pressure 30.14 in    
Wind  
Wind Speed 20 mph (SW)    
Max Wind Speed 28 mph    
Max Gust Speed 33 mph    
Visibility 10 miles    
Events      
T = Trace of Precipitation, MM = Missing Value Source: NWS Daily Summary

Daily Weather History Graph

Daily Weather History Graph

Search for Another Location

Airport or City:

Trip Planner

Search our weather history database for the weather conditions in past years. The results will help you decide how hot, cold, wet, or windy it might be!

Date:

Astronomy

Oct. 06, 2013 Rise Set
Actual Time 7:19 AM MDT 6:44 PM MDT
Civil Twilight 6:49 AM MDT 7:13 PM MDT
Nautical Twilight 6:15 AM MDT 7:48 PM MDT
Astronomical Twilight 5:40 AM MDT 8:23 PM MDT
Moon 9:14 AM MDT (10/6) 7:37 PM MDT (10/6)
Length of Visible Light 12h 24m
Length of Day
11h 24m
Waxing Crescent, 4% of the Moon is Illuminated
Oct 6
Waxing Crescent
Oct 11
First Quarter
Oct 18
Full
Oct 26
Last Quarter
Nov 3
New

Hourly Weather History & Observations

Time (MDT) Temp. Windchill Dew Point Humidity Pressure Visibility Wind Dir Wind Speed Gust Speed Precip Events Conditions
12:53 AM 42.1 °F 33.1 °F 30.9 °F 65% 30.22 in 10.0 mi SW 20.7 mph 28.8 mph N/A   Clear
1:53 AM 42.1 °F 32.6 °F 30.9 °F 65% 30.23 in 10.0 mi WSW 23.0 mph - N/A   Clear
2:53 AM 42.1 °F 32.3 °F 30.9 °F 65% 30.22 in 10.0 mi SW 24.2 mph 28.8 mph N/A   Clear
3:53 AM 42.1 °F 32.3 °F 30.0 °F 62% 30.21 in 10.0 mi WSW 24.2 mph - N/A   Clear
4:53 AM 41.0 °F 31.1 °F 30.0 °F 65% 30.19 in 10.0 mi SW 23.0 mph - N/A   Clear
5:53 AM 42.1 °F 32.6 °F 28.9 °F 60% 30.21 in 10.0 mi SW 23.0 mph - N/A   Clear
6:53 AM 42.1 °F 32.3 °F 28.9 °F 60% 30.21 in 10.0 mi WSW 24.2 mph - N/A   Clear
7:53 AM 42.1 °F 33.1 °F 28.9 °F 60% 30.22 in 10.0 mi SW 20.7 mph - N/A   Clear
8:53 AM 45.0 °F 37.4 °F 28.0 °F 52% 30.23 in 10.0 mi WSW 18.4 mph - N/A   Clear
9:53 AM 48.0 °F - 30.0 °F 50% 30.22 in 10.0 mi SW 20.7 mph 27.6 mph N/A   Clear
10:53 AM 52.0 °F - 30.9 °F 45% 30.20 in 10.0 mi WSW 19.6 mph 28.8 mph N/A   Clear
11:53 AM 57.0 °F - 34.0 °F 42% 30.18 in 10.0 mi WSW 19.6 mph - N/A   Clear
12:53 PM 59.0 °F - 36.0 °F 42% 30.17 in 10.0 mi WSW 15.0 mph - N/A   Clear
1:53 PM 61.0 °F - 35.1 °F 38% 30.13 in 10.0 mi SW 18.4 mph - N/A   Clear
2:53 PM 63.0 °F - 34.0 °F 34% 30.11 in 10.0 mi SW 20.7 mph 25.3 mph N/A   Clear
3:53 PM 64.0 °F - 36.0 °F 35% 30.09 in 10.0 mi SW 18.4 mph - N/A   Clear
4:53 PM 62.1 °F - 39.0 °F 43% 30.09 in 10.0 mi SW 19.6 mph - N/A   Clear
5:53 PM 60.1 °F - 39.0 °F 46% 30.09 in 10.0 mi SW 17.3 mph - N/A   Clear
6:53 PM 57.9 °F - 37.9 °F 47% 30.07 in 10.0 mi WSW 17.3 mph - N/A   Clear
7:53 PM 57.0 °F - 37.0 °F 47% 30.05 in 10.0 mi WSW 23.0 mph - N/A   Clear
8:53 PM 55.9 °F - 37.0 °F 49% 30.05 in 10.0 mi WSW 20.7 mph - N/A   Clear
9:53 PM 55.0 °F - 37.0 °F 51% 30.04 in 10.0 mi WSW 18.4 mph - N/A   Clear
10:53 PM 55.0 °F - 36.0 °F 49% 30.03 in 10.0 mi WSW 18.4 mph - N/A   Clear
11:53 PM 53.1 °F - 35.1 °F 50% 30.00 in 10.0 mi WSW 19.6 mph - N/A   Clear